{"data":{"norad_id":27651,"epoch":"2026-05-25T02:13:45.187104Z","epoch_age_seconds":63046,"freshness":"FRESH","line1":"1 27651U 03004A   26145.09288411  .00002562  00000+0  19459-3 0  9994","line2":"2 27651  39.9924  33.4247 0018644 248.3068 111.5741 15.03562587268420","mean_motion":15.03562587,"eccentricity":0.0018644,"inclination_deg":39.9924,"raan_deg":33.4247,"arg_perigee_deg":248.3068,"mean_anomaly_deg":111.5741,"bstar":0.00019459,"rev_number":26842,"period_min":95.772534675339,"perigee_km":542.99363439067,"apogee_km":568.84935169954,"semimajor_km":6934.0584930451,"source":"CELESTRAK","updated_at":"2026-05-25T13:38:24.637431Z"}}